User: anonymous   Login
Location: Bismarck
(46.7731°N, 100.8200°W)
Time: 11:51:37
(UTC-05:00)
Language:

Cosmos 1125 Rocket - Orbit

View from above orbital plane
View from above orbital plane
View from above satellite
View from above satellite

Ground track
Ground track

The orbit data is extracted from the following two-line orbital elements,

1 11511U 79078B   15090.17988301  .00000353  00000-0  12892-3 0  9998
2 11511 074.0393 002.0858 0014612 084.0178 276.2640 14.36589270862448
Epoch (UTC): 31 March 2015 04:19:01
Eccentricity: 0.0014612
inclination: 74.0393°
perigee height: 759 km
apogee height: 780 km
right ascension of ascending node: 2.0858°
argument of perigee: 84.0178°
revolutions per day: 14.36589270
mean anomaly at epoch: 276.2640°
orbit number at epoch: 86244

The dashed part of the orbit path shows where the satellite is in the earth's shadow,  

DLR